Date,TemperatureHighF,TemperatureAvgF,TemperatureLowF,DewpointHighF,DewpointAvgF,DewpointLowF,HumidityHigh,HumidityAvg,HumidityLow,PressureMaxIn,PressureMinIn,WindSpeedMaxMPH,WindSpeedAvgMPH,GustSpeedMaxMPH,PrecipitationSumIn
2013-2-8,39.5,33.4,25.3,21.0,18.6,16.0,76,56,39,30.12,30.06,11,4,0,0.00
2013-2-9,43.4,32.9,23.3,28.0,21.9,12.0,83,65,55,30.17,30.07,13,4,0,0.00
2013-2-10,44.6,36.2,28.6,28.0,22.9,20.0,86,61,38,30.21,30.14,8,3,0,0.00
2013-2-11,48.7,38.2,30.4,32.0,24.4,17.0,75,58,42,30.24,30.11,16,5,0,0.00
2013-2-12,48.7,39.0,32.5,32.0,26.9,24.0,76,63,39,30.34,30.25,16,4,0,0.00
2013-2-13,46.7,39.4,32.5,33.0,29.8,27.0,83,69,51,30.36,30.28,8,2,0,0.00
2013-2-14,53.8,41.8,31.0,36.0,32.4,27.0,86,71,48,30.43,30.35,7,2,0,0.00
2013-2-15,54.6,42.5,33.1,38.0,35.0,30.0,96,76,52,30.40,30.16,8,2,0,0.00
2013-2-16,52.1,40.9,31.4,35.0,28.8,20.0,82,63,34,30.16,30.01,20,5,0,0.00
2013-2-17,44.1,33.6,25.7,25.0,20.7,17.0,77,61,35,30.11,29.99,13,2,0,0.00
2013-2-18,38.0,31.7,26.3,26.0,22.9,20.0,85,71,53,29.98,29.67,6,2,0,0.00
2013-2-19,40.2,31.5,25.0,24.0,21.7,18.0,80,68,47,29.88,29.60,9,3,0,0.00
2013-2-20,40.5,32.3,25.6,25.0,21.3,16.0,82,65,46,29.98,29.89,10,3,0,0.00
2013-2-21,40.3,32.3,24.8,25.0,22.1,19.0,86,68,47,30.09,29.98,8,2,0,0.00
2013-2-22,43.7,35.9,27.7,33.0,27.6,22.0,92,72,60,30.08,29.76,22,7,0,0.00
2013-2-23,36.5,30.0,24.4,25.0,20.4,17.0,90,69,47,30.31,29.92,21,6,0,0.00
2013-2-24,46.9,33.7,22.6,28.0,22.1,15.0,81,63,45,30.34,30.01,7,3,0,0.00
2013-2-25,39.3,34.3,27.0,31.0,23.3,13.0,88,65,37,30.23,29.92,25,8,0,0.00
2013-2-26,48.2,35.5,22.7,22.0,15.6,10.0,79,48,24,30.30,30.17,11,4,0,0.00
2013-2-27,48.3,39.7,32.3,32.0,23.7,16.0,73,54,41,30.22,30.15,10,3,0,0.00
2013-2-28,53.9,45.3,38.3,39.0,36.7,30.0,86,72,56,30.34,30.12,11,3,0,0.00